Home   Weather   Wolfsberg   Past weeks

Flag for Austria Past Weather in Wolfsberg, Carinthia, Austria — Yesterday and Last 2 Weeks

Now
55 °F

Passing clouds.


Feels Like: 52 °F
Forecast: 45 / 52 °F
Wind: 15 mph from South

Location: Zeltweg

Current Time: Apr 26, 2017 at 6:36:15 am

Latest Report: Apr 26, 2017 at 5:50 am


Visibility: 19 mi

Pressure: 29.68 "Hg

Humidity: 55%

Dew Point: 39 °F

Location of WolfsbergLocation

Past Weather in Wolfsberg — Graph

°F

Wolfsberg Temperature Yesterday

Maximum temperature yesterday: 64 °F (at 1:20 pm)
Minimum temperature yesterday: 41 °F (at 1:50 am)
Average temperature yesterday: 55 °F

High & Low Weather Summary for the Past Weeks

 TemperatureHumidityPressure
High64 °F (Apr 25, 1:20 pm)100% (Apr 24, 7:20 am)30.39 "Hg (Apr 24, 7:20 am)
Low23 °F (Apr 21, 4:50 am)29% (Apr 21, 1:20 pm)29.68 "Hg (Apr 26, 1:50 am)
Average46 °F56%30.02 "Hg
* Reported Apr 11 1:50 am — Apr 26 1:50 am, Wolfsberg, Weather by CustomWeather, © 2017

Note: Actual official high and low records may vary slightly from our data, if they occured in-between our weather recording intervals... More about our weather records

Advertising

Wolfsberg Weather History for the Previous 24 Hours

Scroll right to see more
 ConditionsComfort  
Time TempWeatherWind HumidityBarometerVisibility
1:50 am
Wed, Apr 26
54 °FPassing clouds.15 mph58%29.68 "Hg12 mi
10:50 pm
Tue, Apr 25
50 °FPassing clouds.6 mph62%29.74 "Hg12 mi
9:50 pm50 °FPassing clouds.6 mph62%29.77 "Hg12 mi
9:20 pm54 °FPassing clouds.9 mph54%29.74 "Hg12 mi
8:50 pm54 °FPassing clouds.8 mph54%29.74 "Hg12 mi
8:20 pm54 °FPassing clouds.7 mph54%29.74 "Hg19 mi
7:50 pm55 °FScattered clouds.7 mph51%29.74 "Hg19 mi
7:20 pm55 °FPassing clouds.13 mph51%29.74 "Hg19 mi
6:50 pm57 °FPassing clouds.14 mph48%29.74 "Hg19 mi
6:20 pm59 °FScattered clouds.17 mph45%29.74 "Hg19 mi
5:50 pm59 °FScattered clouds.17 mph45%29.74 "Hg19 mi
4:50 pm61 °FScattered clouds.15 mph42%29.74 "Hg19 mi
4:20 pm63 °FScattered clouds.14 mph39%29.74 "Hg19 mi
3:50 pm61 °FScattered clouds.16 mph42%29.74 "Hg19 mi
3:20 pm63 °FScattered clouds.15 mph39%29.77 "Hg19 mi
2:50 pm63 °FScattered clouds.15 mph39%29.77 "Hg19 mi
2:20 pm64 °FScattered clouds.15 mph34%29.77 "Hg19 mi
1:50 pm63 °FScattered clouds.12 mph37%29.77 "Hg19 mi
1:20 pm64 °FScattered clouds.10 mph34%29.77 "Hg19 mi
12:50 pm61 °FScattered clouds.5 mph39%29.80 "Hg19 mi
12:20 pm63 °FScattered clouds.9 mph37%29.80 "Hg19 mi
11:50 am63 °FScattered clouds.6 mph39%29.80 "Hg19 mi
11:20 am61 °FScattered clouds.15 mph39%29.83 "Hg19 mi
10:50 am59 °FScattered clouds.7 mph45%29.83 "Hg19 mi
10:20 am57 °FScattered clouds.10 mph48%29.83 "Hg19 mi
9:50 am57 °FPassing clouds.8 mph48%29.83 "Hg19 mi
9:20 am55 °FPassing clouds.10 mph51%29.86 "Hg19 mi
8:50 am54 °FPassing clouds.7 mph58%29.86 "Hg19 mi
8:20 am48 °FPassing clouds.1 mph66%29.86 "Hg19 mi
7:50 am46 °FPassing clouds.8 mph66%29.86 "Hg19 mi
7:20 am43 °FScattered clouds.13 mph76%29.86 "Hg19 mi
6:50 am41 °FScattered clouds.6 mph76%29.86 "Hg19 mi
Weather by CustomWeather, © 2017

See weather overviewHow to use our weather pages